Cloud_Cover
5 94 39 83 95 95 99 100 100 100 78 86 49 21 56 13 48 7 36 84 100 100 53 6 5 5 5 5 24 1 72 98 93 100 100 100 76 5 7 5 7 18 55 80 95 100 100 100 100 100 93 95 15 5
14 45 92 100 60 8 5 71 96 100 100 100 100 100 100 100 97 48 99 65 99 100 26 6 75 75 31 25 19 46 48 99 97 100 60 98 89 43 62 83 5 28 5 5 97 100 100 100 100 48 49 17 5 5
55 98 45 8 87 100 100 100 100 100 100 100 100 100 100 100 100 100 100 100 100 100 100 100 90 86 79 41 54 38 13 100 100 100 100 99 100 100 52 75 100 100 48 6 100 100 98 100 97 96 74 59 5 35
9 8 90 100 100 100 100 100 100 100 100 100 100 100 100 100 100 100 100 100 100 100 100 35 77 30 94 67 60 24 100 100 100 100 100 100 89 11 100 100 100 100 99 80 52 99 100 100 100 69 35 44 63 87
96 100 100 100 100 100 100 100 100 100 100 100 100 100 100 100 100 100 100 100 100 100 100 72 43 3 4 4 99 84 100 100 100 100 100 100 95 100 100 98 100 100 100 100 100 100 100 100 66 55 97 83 100 100
100 100 100 100 100 100 100 100 100 100 100 100 100 100 100 100 100 100 100 100 100 100 100 100 100 3 0 69 100 100 100 91 99 100 100 100 100 100 98 95 100 100 100 89 100 100 100 100 100 100 100 100 100 100
100 100 100 100 100 100 100 100 100 100 100 100 100 100 100 100 100 100 100 100 100 100 100 100 100 100 19 92 93 56 31 100 99 100 84 79 95 100 100 98 100 100 100 100 100 99 100 100 100 100 100 100 100 100
100 100 100 100 100 100 100 100 100 100 100 100 100 100 100 100 100 100 100 100 100 100 100 100 100 100 100 97 100 100 100 100 92 34 91 100 100 100 95 100 100 100 100 100 100 100 100 100 100 100 100 100 100 100
100 100 100 100 100 100 100 100 100 100 100 100 100 100 100 100 100 100 100 100 100 80 92 96 99 100 100 100 100 100 70 89 100 100 100 93 82 86 100 100 52 99 100 100 100 100 100 100 100 100 100 100 100 100
100 100 100 100 100 100 100 100 100 100 100 100 100 100 100 100 100 100 100 100 100 100 100 75 90 100 99 100 100 92 100 61 96 40 100 99 16 100 100 100 100 100 100 100 100 100 100 100 100 100 100 100 100 90
100 100 100 100 100 100 100 100 100 100 100 100 100 100 100 100 100 100 100 99 100 100 89 91 67 100 74 67 74 74 94 95 96 100 100 84 100 100 100 100 100 100 100 100 100 100 100 100 100 100 100 98 62 54
100 100 100 100 100 100 100 100 100 100 100 100 100 100 100 100 100 100 99 100 38 100 100 100 100 100 100 100 100 100 100 98 100 100 100 100 100 100 100 100 100 100 100 100 100 100 100 100 98 100 100 75 18 39
100 100 100 100 100 100 100 100 100 100 100 100 100 100 100 100 100 100 100 100 100 100 100 100 100 100 100 100 100 100 100 100 100 100 99 100 100 100 100 100 100 100 100 100 100 100 100 100 100 98 49 42 14 65
100 100 100 100 100 100 100 100 100 100 100 100 100 100 100 100 100 100 100 100 92 99 100 100 100 100 90 100 100 100 100 100 100 100 100 100 100 100 100 100 100 100 100 100 100 81 100 95 53 5 5 5 7 71
100 100 100 100 100 100 100 100 100 100 100 100 100 100 100 100 100 100 100 100 100 100 100 100 99 100 100 100 100 85 99 96 100 100 100 92 100 95 99 100 100 100 100 98 99 100 74 34 30 80 9 5 5 13
100 100 100 100 100 100 100 100 100 100 100 100 100 100 100 100 100 100 100 100 100 100 100 100 100 100 100 100 100 100 100 100 100 87 74 88 100 100 100 100 100 100 86 97 100 44 70 72 41 81 9 5 5 5
100 100 100 100 100 100 100 100 100 100 100 100 100 100 100 100 100 100 100 100 100 100 100 100 100 100 100 100 100 100 100 100 100 100 86 100 100 100 100 100 100 98 100 100 100 95 72 64 47 16 21 95 5 27
100 100 100 100 100 100 100 100 100 100 100 100 100 100 100 100 100 100 100 100 100 100 100 100 100 100 100 100 100 99 100 100 100 100 100 100 100 100 100 100 100 100 100 100 90 62 70 57 6 10 11 59 86 98
100 100 100 100 100 100 100 100 100 100 100 100 100 100 100 100 100 100 100 100 100 100 100 100 100 100 100 100 100 100 99 100 100 100 100 100 100 100 100 100 100 100 100 100 67 46 26 5 5 5 50 76 83 100
100 100 100 100 100 100 100 100 100 100 100 100 100 100 100 100 100 100 100 100 100 100 100 97 100 100 100 100 100 100 100 100 99 100 100 100 100 100 100 100 100 100 100 100 72 49 51 52 12 8 58 68 83 100
100 100 100 100 100 100 100 100 100 100 100 100 100 100 100 100 100 100 100 100 100 100 100 100 100 100 100 100 100 100 100 100 100 100 100 100 100 100 100 100 100 100 100 100 100 88 75 29 35 55 58 58 27 7
100 100 100 100 100 100 100 100 100 100 100 100 100 100 100 100 100 100 100 100 100 100 100 100 100 100 100 100 100 100 100 100 100 100 100 100 100 100 100 100 100 100 100 100 100 100 100 94 58 47 32 57 27 55
100 100 100 100 98 100 100 100 100 100 100 100 100 100 100 100 100 100 100 100 100 100 100 100 100 100 100 100 100 100 100 100 100 100 100 100 100 100 100 100 100 100 100 100 100 100 100 100 74 38 51 73 85 98
100 100 100 100 100 100 100 100 100 100 100 100 100 100 100 100 100 100 100 100 100 100 100 100 100 100 100 100 100 100 100 100 100 100 100 100 100 100 100 100 100 100 100 100 100 100 100 100 87 64 65 87 67 66
100 100 100 100 100 100 100 100 100 100 100 100 100 100 100 100 100 92 98 100 100 100 100 100 100 100 95 98 100 100 100 100 100 100 100 100 100 100 100 100 100 100 100 100 100 100 100 99 90 94 81 64 42 71
82 94 98 100 100 100 100 100 100 100 100 100 100 100 100 100 98 100 100 100 100 100 100 100 100 100 100 99 100 100 100 100 100 100 100 100 100 100 100 100 100 100 100 100 100 100 99 68 77 97 98 62 55 88
76 86 92 100 100 100 100 100 100 100 97 89 79 78 46 93 100 100 100 100 99 96 100 100 100 100 99 100 100 100 100 100 100 100 100 100 100 100 100 100 100 100 100 100 97 65 40 67 94 100 79 96 86 92
100 99 60 96 82 41 60 90 93 92 94 63 40 82 69 84 86 95 100 100 99 86 97 99 90 89 86 92 98 86 96 99 100 100 100 97 89 77 84 90 86 95 100 100 100 100 100 100 100 100 89 80 83 99
98 93 80 93 83 67 88 96 100 99 100 70 59 99 100 94 100 100 100 98 98 89 98 99 85 83 75 57 71 87 96 72 61 78 93 80 89 80 88 87 93 90 88 100 100 100 100 100 100 100 98 100 100 100
91 95 78 83 74 84 94 96 100 98 100 92 52 72 92 95 100 100 100 99 100 94 96 96 93 70 95 90 84 80 75 70 80 84 90 77 74 81 100 89 84 90 100 100 100 100 100 100 100 100 100 100 100 100
100 99 77 74 80 99 100 100 100 100 100 98 87 77 61 82 98 100 98 91 87 83 84 79 69 72 64 68 85 78 71 51 66 74 80 78 78 91 94 99 100 100 100 100 100 100 100 100 100 100 100 100 100 100
90 95 82 74 77 97 94 96 82 74 82 75 85 85 100 93 93 93 81 72 83 90 88 74 76 72 81 76 89 94 97 92 70 88 96 72 75 75 100 100 100 100 100 100 100 100 100 100 100 100 100 100 100 100
100 100 100 100 99 88 93 96 100 100 100 100 98 93 93 81 88 99 100 100 95 100 99 100 100 100 100 95 94 96 93 92 92 80 80 88 100 100 100 100 100 100 100 100 100 100 100 100 100 100 100 100 100 100